433  
ASUS43 KGLD 212008  
RWRGLD  
 
GOODLAND FORECAST AREA HOURLY WEATHER ROUNDUP  
NATIONAL WEATHER SERVICE GOODLAND KS  
200 PM MDT FRI JUL 21 2017  
   
..OFFICIAL OBSERVATIONS
 
 
 
CITY SKY/WX TMP DP RH WIND PRES REMARKS
 
GOODLAND KS SUNNY 96 60 30 S12 29.94F  
HILL CITY KS SUNNY 107 53 16 S13 29.83F HX 105  
IMPERIAL NEB SUNNY 99 51 19 E7 29.92F  
MCCOOK NEB SUNNY 104 67 30 SW6 29.85F HX 109  
AKRON CO SUNNY 95 46 18 VRB3 30.04  
BURLINGTON CO SUNNY 97 53 22 S8 29.99F  
LIMON CO SUNNY 89 50 26 CALM 30.10F  

 
   
..UNOFFICIAL OBSERVATIONS
 
 
 
CITY SKY/WX TMP DP RH WIND PRES REMARKS
 
LENORA KS N/A 102 32 8 MISG N/A  
NORTON KS SUNNY 106 50 15 SW14 29.83F HX 103  
SHARON SPRINGS N/A 99 61 28 S8 N/A  
TRIBUNE KS SUNNY 100 55 22 SE6 29.96F  
TRENTON NEB N/A 102 32 8 CALM N/A  
KIT CARSON CO N/A 97 59 28 CALM N/A  
YUMA CO FAIR 95 52 23 NE7 29.99F  

 
 
 
CLICK HERE TO GO TO PREVIOUS BULLETINS.

The Nexlab KS Page
The Nexlab CO Page
The Nexlab NE Page Main Text Page